This is the latest recevied weather packets stored in our database for station/object SP9MUF-14. If no packets are shown the sender has not sent any weather packets the latest 10 day(s).
| Time | Temp. | Humidity | Pressure | Rain* | Wind** | Luminosity | Snow |
|---|---|---|---|---|---|---|---|
| 1788537506 | 25.56° C | 51% | 1010.1 hPa | 0 mm | - | 41 W/m² | - |
| 1788536600 | 25.56° C | 50% | 1010.2 hPa | 0 mm | - | 77 W/m² | - |
| 1788536298 | 25.56° C | 50% | 1010.4 hPa | 0 mm | - | 91 W/m² | - |
| 1788535996 | 25.56° C | 51% | 1010.5 hPa | 0 mm | - | 77 W/m² | - |
| 1788535694 | 25.56° C | 51% | 1010.6 hPa | 0 mm | - | 104 W/m² | - |
| 1788535392 | 25° C | 51% | 1009.9 hPa | 0 mm | - | 93 W/m² | - |
| 1788534787 | 25° C | 52% | 1010.8 hPa | 0 mm | - | 45 W/m² | - |
| 1788534485 | 25° C | 52% | 1010.9 hPa | 0 mm | - | 53 W/m² | - |
| 1788534183 | 25.56° C | 52% | 1010.9 hPa | 0 mm | - | 81 W/m² | - |
| 1788533881 | 25.56° C | 50% | 1010.9 hPa | 0 mm | - | 74 W/m² | - |
| 1788533579 | 25.56° C | 50% | 1010.9 hPa | 0 mm | - | 104 W/m² | - |
| 1788532975 | 25.56° C | 49% | 1011.2 hPa | 0 mm | - | 151 W/m² | - |
| 1788532673 | 25.56° C | 49% | 1011.2 hPa | 0 mm | - | 200 W/m² | - |
| 1788532370 | 25.56° C | 50% | 1011.4 hPa | 0 mm | - | 176 W/m² | - |
| 1788532068 | 25.56° C | 49% | 1011.3 hPa | 0 mm | - | 219 W/m² | - |
| 1788531766 | 25° C | 50% | 1011.5 hPa | 0 mm | - | 108 W/m² | - |
| 1788531464 | 25° C | 51% | 1011.6 hPa | 0 mm | - | 258 W/m² | - |
| 1788531162 | 25° C | 53% | 1011.7 hPa | 0 mm | - | 148 W/m² | - |
| 1788530860 | 25° C | 53% | 1011.7 hPa | 0 mm | - | 169 W/m² | - |
| 1788530558 | 23.89° C | 53% | 1011.9 hPa | 0 mm | - | 162 W/m² | - |
| 1788530256 | 23.89° C | 54% | 1012 hPa | 0 mm | - | 133 W/m² | - |
| 1788529953 | 25° C | 52% | 1012 hPa | 0 mm | - | 164 W/m² | - |
| 1788529653 | 23.89° C | 53% | 1012.1 hPa | 0 mm | - | 167 W/m² | - |
| 1788529349 | 23.89° C | 54% | 1012.2 hPa | 0 mm | - | 141 W/m² | - |
| 1788529047 | 23.89° C | 53% | 1009.7 hPa | 0 mm | - | 125 W/m² | - |
* Rain latest hour (hover to see other rain measurements)
** Current wind speed in m/s (hover to see current wind gust speed)